2023/08/08 00:00:00, 0.2,27.6
2023/08/08 00:10:00, 0.2,27.6
2023/08/08 00:20:00, 0.2,27.4
2023/08/08 00:30:00, 0.2,27.1
2023/08/08 00:40:00, 0.2,27.1
2023/08/08 00:50:00, 0.2,26.7
2023/08/08 01:00:00, 0.2,26.6
2023/08/08 01:10:00, 0.2,26.5
2023/08/08 01:20:00, 0.2,26.2
2023/08/08 01:30:00, 2.4,26.3
2023/08/08 01:40:00, 8.0,27.2
2023/08/08 01:50:00, 5.9,26.9
2023/08/08 02:00:00, 5.1,26.1
2023/08/08 02:10:00, 5.0,25.9
2023/08/08 02:20:00, 2.7,25.4
2023/08/08 02:30:00, 1.6,24.9
2023/08/08 02:40:00, 0.4,24.7
2023/08/08 02:50:00, 0.2,24.7
2023/08/08 03:00:00, 0.2,24.6
2023/08/08 03:10:00, 0.2,24.6
2023/08/08 03:20:00, 0.2,24.3
2023/08/08 03:30:00, 3.6,24.2
2023/08/08 03:40:00,12.1,23.9
2023/08/08 03:50:00,10.7,23.8
2023/08/08 04:00:00,10.4,24.0
2023/08/08 04:10:00, 8.2,23.7
2023/08/08 04:20:00, 0.2,23.6
2023/08/08 04:30:00, 0.1,23.5
2023/08/08 04:40:00, 0.1,23.4
2023/08/08 04:50:00, 0.1,23.1
2023/08/08 05:00:00, 0.2,23.3
2023/08/08 05:10:00, 0.2,23.2
2023/08/08 05:20:00, 0.2,23.0
2023/08/08 05:30:00, 0.2,23.0
2023/08/08 05:40:00, 0.2,23.3
2023/08/08 05:50:00,10.7,23.3
2023/08/08 06:00:00,15.9,23.4
2023/08/08 06:10:00, 7.9,23.5
2023/08/08 06:20:00, 0.2,24.1
2023/08/08 06:30:00, 0.2,24.8
2023/08/08 06:40:00, 0.2,25.7
2023/08/08 06:50:00, 0.2,26.0
2023/08/08 07:00:00, 0.3,26.7
2023/08/08 07:10:00, 0.3,27.6
2023/08/08 07:20:00, 0.4,28.2
2023/08/08 07:30:00, 1.0,29.2
2023/08/08 07:40:00, 0.7,29.9
2023/08/08 07:50:00, 0.5,30.1
2023/08/08 08:00:00, 0.5,30.7
2023/08/08 08:10:00, 0.5,31.1
2023/08/08 08:20:00, 0.5,31.6
2023/08/08 08:30:00, 0.5,32.0
2023/08/08 08:40:00, 0.5,32.5
2023/08/08 08:50:00, 0.5,32.3
2023/08/08 09:00:00, 0.5,33.4
2023/08/08 09:10:00, 0.5,34.2
2023/08/08 09:20:00, 1.0,34.0
2023/08/08 09:30:00, 0.8,34.4
2023/08/08 09:40:00, 0.5,34.9
2023/08/08 09:50:00, 0.8,35.4
2023/08/08 10:00:00, 7.6,35.2
2023/08/08 10:10:00,10.3,35.4
2023/08/08 10:20:00,10.3,35.5
2023/08/08 10:30:00, 8.7,35.3
2023/08/08 10:40:00, 3.9,34.9
2023/08/08 10:50:00, 0.5,33.5
2023/08/08 11:00:00, 0.4,33.9
2023/08/08 11:10:00, 0.4,34.1
2023/08/08 11:20:00, 0.4,34.3
2023/08/08 11:30:00, 0.4,34.8
2023/08/08 11:40:00, 0.4,34.1
2023/08/08 11:50:00, 0.4,33.3
2023/08/08 12:00:00, 0.5,33.3
2023/08/08 12:10:00, 0.5,33.2
2023/08/08 12:20:00, 0.5,32.4
2023/08/08 12:30:00, 0.5,33.0
2023/08/08 12:40:00, 0.4,34.5
2023/08/08 12:50:00, 0.4,35.5
2023/08/08 13:00:00, 0.9,36.1
2023/08/08 13:10:00, 0.5,35.6
2023/08/08 13:20:00, 3.4,34.5
2023/08/08 13:30:00, 6.2,34.3
2023/08/08 13:40:00, 5.8,34.9
2023/08/08 13:50:00, 3.4,33.2
2023/08/08 14:00:00, 1.0,32.9
2023/08/08 14:10:00, 5.7,35.1
2023/08/08 14:20:00, 8.7,34.7
2023/08/08 14:30:00, 7.1,34.4
2023/08/08 14:40:00, 2.6,34.6
2023/08/08 14:50:00, 0.4,34.9
2023/08/08 15:00:00, 0.4,35.1
2023/08/08 15:10:00,---,34.9
2023/08/08 15:20:00, 6.7,35.2
2023/08/08 15:30:00, 5.7,35.2
2023/08/08 15:40:00, 7.1,34.7
2023/08/08 15:50:00, 6.7,34.2
2023/08/08 16:00:00, 4.3,34.4
2023/08/08 16:10:00, 4.4,34.2
2023/08/08 16:20:00, 5.1,34.5
2023/08/08 16:30:00, 5.4,33.7
2023/08/08 16:40:00, 5.2,33.1
2023/08/08 16:50:00, 4.7,33.3
2023/08/08 17:00:00, 4.9,32.9
2023/08/08 17:10:00, 5.2,32.5
2023/08/08 17:20:00, 5.3,31.9
2023/08/08 17:30:00, 5.0,32.3
2023/08/08 17:40:00, 4.7,31.7
2023/08/08 17:50:00, 4.7,31.3
2023/08/08 18:00:00, 4.8,31.2
2023/08/08 18:10:00, 7.5,31.1
2023/08/08 18:20:00, 9.7,30.8
2023/08/08 18:30:00, 8.6,30.7
2023/08/08 18:40:00, 4.4,30.4
2023/08/08 18:50:00, 1.3,30.1
2023/08/08 19:00:00, 0.2,30.0
2023/08/08 19:10:00, 0.1,30.0
2023/08/08 19:20:00, 0.1,29.9
2023/08/08 19:30:00, 0.2,29.6
2023/08/08 19:40:00, 0.2,29.7
2023/08/08 19:50:00, 0.2,29.5
2023/08/08 20:00:00, 0.2,29.6
2023/08/08 20:10:00, 0.4,29.5
2023/08/08 20:20:00, 0.3,29.2
2023/08/08 20:30:00, 0.2,29.2
2023/08/08 20:40:00, 0.2,29.2
2023/08/08 20:50:00, 0.2,29.2
2023/08/08 21:00:00, 2.1,29.0
2023/08/08 21:10:00, 7.9,29.0
2023/08/08 21:20:00,10.4,28.9
2023/08/08 21:30:00, 2.5,29.0
2023/08/08 21:40:00, 4.6,29.0
2023/08/08 21:50:00, 3.1,28.6
2023/08/08 22:00:00, 0.2,28.5
2023/08/08 22:10:00, 0.2,28.6
2023/08/08 22:20:00, 0.1,28.7
2023/08/08 22:30:00, 0.1,28.8
2023/08/08 22:40:00, 0.2,28.6
2023/08/08 22:50:00, 0.2,28.7
2023/08/08 23:00:00, 0.1,28.6
2023/08/08 23:10:00, 0.1,28.3
2023/08/08 23:20:00, 0.2,28.6
2023/08/08 23:30:00, 0.2,28.4
2023/08/08 23:40:00, 0.2,28.2
2023/08/08 23:50:00, 0.2,28.5
